Location: Gleizolles
(44.4833°N, 6.7667°E)
Time: 05:20:32
(UTC+00:00)

Transit 4A - Pass Details

Date: 01 July 2024
Orbit: 870 x 973 km, 66.8° (Epoch: 14 July)

Event Time Altitude Azimuth Distance (km) Brightness Sun altitude
Rises 21:45:02 0° 263° (W) 3,455 11.2 -17.8°
Reaches altitude 10° 21:48:19 10° 282° (WNW) 2,519 10.7 -18.1°
Maximum altitude 21:52:16 18° 325° (NW) 1,990 10.6 -18.4°
Drops below altitude 10° 21:56:16 10° 8° (N) 2,537 11.0 -18.7°
Sets 21:59:36 0° 27° (NNE) 3,490 11.5 -18.9°
